DECAYED

STARLINK-4038, 53150 (Decayed)

Orbit data source: Space-Track

STARLINK-4038, 53150 was a payload satellite owned by SpaceX/Seattle (US) in LEO that was launched on Sun, 17 Jul 2022 UTC via an FALCON 9 launch vehicle from the Air Force Eastern Test Range (AFETR). Payload-class satellites include a variety of spacecraft equipped with specific instruments for various scientific and technological missions. These include communications satellites like Starlink; space stations such as the ISS; scientific satellites like the Hubble; Earth observation satellites from companies like Planet Labs, Umbra, and HawkEye 360; GPS; miniature CubeSats for education and research; and military/defense satellites.

Not visible in the next 10 days
Identifier
53150, 2022-083U
Orbit
Decayed
Country
Flag of USUS
Related business
Manufacturer
SpaceX/Seattle
Mission
Decayed Commercial Communications
Bus & Motor
STARLINK, Unknown motor
Mass
297 kg wet, ~275 kg dry
Launch date (UTC)
2022-07-17 (4 years ago)
Launch vehicle
FALCON 9
Launch site
Air Force Eastern Test Range (AFETR)
Object type
Payload
Rocket body
Debris
Shape & HBR
Box + 1 Pan, 10.1 m
Radar Cross Section
13.562 m², Large (>1 m²)

Expand to show TLE details & history
Last TLE update: 3 months ago

TLE from 3 months ago
0 STARLINK-4038
1 53150U 22083U   26090.31863743  .10386223  12521-4  20222-3 0  9992
2 53150  53.1842   7.3777 0005391 256.2176 103.8275 16.46965773205453
Epoch: 2026-03-31T07:38Z
TLE epoch observation values (Epoch: 2026-03-31T07:38:50.273Z)
Latitude
-0.0001°
Longitude
63.97062°
Altitude
149.128 km
Speed
7.818 km/s
True Right ascension
00h 29m 30s
True Declination
0° 00' 00"
Sunlit
Object was in daylight at epoch
Visualization orbit readout
Latitude
Unknown
Longitude
Unknown
Altitude
Unknown
Speed
Unknown
Apparent Right ascension
Unknown
Apparent Declination
Unknown
Sunlit
N/A
Visualization observer readout
Local Sidereal Time
21:32:34
Azimuth
Unknown
Elevation
Unknown
Doppler factor
Unknown
Orbital elements
Apogee altitude
151.121 km
Perigee altitude
144.085 km
Semi-major axis
6,525.74 km
Eccentricity
0.00054
Inclination
53.1842°
RAAN
7.3777°
Arg. of periapsis
256.2176°
True anomaly
103.88748°
Mean anomaly
103.8275°
Eccentric anomaly
103.85749°
Mean motion
4.11717 °/min
Orbital period
87.44 mins
BSTAR
0.00020222
Loading maneuver chart data...
Computing Atmospheric mass density...
Loading historical data...
Loading historical data...
Loading historical data...
Loading historical data...
Loading historical data...
Loading historical data...
Loading historical data...

Documentation

Showing up to 5 results
|